Lapse_Rate
6.5 6.7 6.5 7.0 7.4 7.8 8.2 8.1 8.2 8.0 7.7 8.1 8.3 8.4 8.3 8.3 7.8 7.1 7.1 7.0 6.8 6.7 6.3 6.1 6.3 6.2 6.2 6.3 6.3 6.5 6.5 6.3 6.4 6.4 6.4 6.4 6.4 6.3 6.2 6.3 6.2 6.0 5.8 5.7
6.1 6.1 7.7 8.1 8.0 7.8 7.9 8.0 8.0 8.0 7.5 7.7 7.9 8.3 8.2 8.1 8.4 8.3 8.0 7.7 7.4 7.1 6.6 6.3 6.2 6.3 6.5 6.4 6.4 6.6 6.6 6.5 6.4 6.5 6.5 6.5 6.4 6.3 6.4 6.3 6.4 6.4 6.2 6.1
5.9 7.0 8.0 8.1 7.7 7.5 7.7 7.8 7.6 7.7 8.0 7.7 7.6 7.6 8.3 8.3 8.1 8.1 8.0 7.7 7.1 7.3 7.5 7.2 6.9 6.9 6.7 6.8 7.0 7.1 7.0 7.1 6.9 6.8 6.5 6.4 6.5 6.6 6.6 6.7 6.7 6.7 6.7 6.7
5.9 7.5 8.0 7.9 7.9 7.8 7.2 7.9 8.2 8.1 7.8 7.4 8.1 7.4 8.4 8.6 8.4 8.2 8.2 8.2 7.8 7.2 7.4 7.3 7.2 7.3 7.6 7.4 7.1 7.4 7.4 7.4 7.1 7.0 6.7 6.5 6.5 6.5 6.5 6.5 6.6 6.7 6.8 6.8
5.9 7.3 7.6 7.8 7.7 7.8 8.0 8.3 8.6 8.6 8.4 8.2 7.9 7.8 8.6 8.7 8.2 8.6 8.8 8.6 8.5 8.1 7.7 7.9 7.7 7.5 7.3 7.5 7.5 7.5 7.6 7.5 7.3 7.1 6.9 6.7 6.6 6.6 6.6 6.4 6.3 6.4 6.7 6.8
6.4 7.2 7.9 8.0 8.2 8.3 8.5 8.9 8.8 8.7 8.4 7.3 8.0 7.9 7.8 8.1 8.9 9.2 9.1 8.9 8.9 8.5 8.2 7.9 7.7 7.3 7.5 7.5 7.5 7.6 7.8 7.8 7.4 7.3 7.0 6.9 6.7 6.8 6.9 6.7 6.6 6.7 6.7 6.5
6.2 6.8 7.4 8.3 8.2 8.4 8.4 8.8 8.4 7.4 6.9 6.6 8.4 7.2 7.4 8.4 8.9 9.3 9.3 9.3 9.1 8.9 8.5 8.1 7.7 7.4 7.5 8.0 7.9 7.7 7.9 7.8 7.4 7.2 7.1 7.1 6.9 6.9 6.9 6.8 6.7 6.8 6.9 6.8
6.5 6.9 7.2 7.8 8.1 8.5 8.4 8.7 8.5 7.4 6.2 7.4 8.5 6.2 7.6 9.1 9.2 9.2 9.2 9.2 9.0 8.9 8.9 8.5 8.1 7.7 7.8 8.3 8.0 8.1 8.0 7.6 7.3 7.2 7.1 7.1 7.0 7.0 6.9 7.0 7.0 7.0 6.8 6.7
6.9 7.0 7.7 7.9 8.0 8.4 8.5 8.5 8.7 8.9 7.9 7.7 8.1 8.5 8.3 9.0 9.2 9.2 9.2 9.1 9.2 9.2 9.1 8.9 8.5 8.0 7.8 8.1 8.3 8.3 7.9 7.6 7.6 7.5 7.3 7.3 7.2 6.9 6.6 6.6 6.7 6.7 6.8 6.6
7.4 7.4 7.4 8.0 8.3 8.2 8.5 8.7 8.7 8.4 6.8 6.9 7.8 8.5 8.2 8.9 9.1 9.3 9.3 9.3 9.2 9.2 9.1 8.9 8.7 8.3 8.1 8.2 8.3 8.1 7.8 7.5 7.4 7.4 7.4 7.3 7.4 7.0 6.6 6.7 6.7 6.7 6.6 6.6
8.0 7.9 7.7 7.9 8.1 8.1 8.3 8.4 8.5 8.5 8.5 6.3 6.4 8.0 9.1 8.8 9.2 9.3 9.6 9.6 9.3 9.3 9.0 9.1 8.9 8.5 8.3 8.2 8.3 8.1 7.9 8.0 7.8 7.5 7.2 7.1 7.1 7.1 6.8 6.6 6.5 6.4 6.5 6.4
8.3 8.0 7.6 7.7 7.9 8.2 8.3 8.6 8.5 8.5 7.8 8.4 8.6 8.6 9.3 9.2 9.3 9.2 9.5 9.6 9.2 9.4 9.2 9.0 8.7 8.5 8.5 8.3 8.1 8.0 8.1 8.0 7.8 7.7 7.3 7.0 7.0 7.0 7.1 6.8 6.7 6.4 6.4 6.3
8.4 7.8 7.5 7.6 8.0 7.9 8.0 8.3 8.5 8.7 8.9 8.7 8.0 8.3 9.0 9.1 9.4 9.5 9.5 9.5 9.3 9.3 9.2 9.1 8.8 8.6 8.5 8.4 8.2 8.1 8.3 8.2 8.0 7.9 7.3 7.1 7.3 5.9 7.4 7.4 7.1 6.6 6.4 6.5
8.6 7.7 8.0 6.9 7.1 7.7 7.8 8.0 8.4 8.7 8.8 8.8 8.6 8.7 9.0 9.2 9.4 9.4 9.5 9.6 9.5 9.4 9.3 9.2 9.1 8.9 8.7 8.6 8.6 8.4 8.5 8.3 8.2 7.9 7.7 7.5 7.4 6.6 6.1 6.5 5.9 5.6 6.1 6.2
8.9 8.8 8.2 7.7 7.8 8.1 8.2 8.2 8.4 8.6 9.0 9.0 8.7 9.0 9.2 9.2 9.3 9.3 9.5 9.5 9.6 9.3 9.1 9.1 9.1 8.8 8.7 8.6 8.5 8.4 8.6 8.5 8.2 7.8 7.9 7.5 7.0 7.0 6.1 6.3 5.5 5.6 6.2 5.6
8.5 8.5 8.5 7.9 8.2 8.3 8.5 8.5 8.7 9.0 9.2 9.0 9.0 8.6 9.2 9.3 9.5 9.6 9.7 9.6 9.5 9.4 9.1 9.1 9.1 9.0 9.1 8.9 8.5 8.6 8.5 8.4 8.1 7.9 7.9 7.8 7.7 7.2 6.0 6.4 5.3 5.9 6.4 5.5
8.2 8.4 8.4 7.8 8.1 8.5 8.3 8.6 8.6 8.8 9.1 9.1 9.1 9.1 9.4 9.3 9.6 9.6 9.6 9.6 9.5 9.5 9.1 9.0 9.2 9.1 8.9 8.7 8.5 8.5 8.1 8.1 7.9 8.0 7.9 8.0 7.7 7.4 7.1 6.8 5.3 6.8 6.1 5.7
7.6 7.9 8.2 8.2 8.3 7.3 8.4 8.7 8.9 9.0 9.1 9.1 9.2 9.3 9.5 9.4 9.6 9.6 9.5 9.5 9.5 9.5 9.3 9.0 9.0 9.0 8.6 8.2 8.3 8.4 8.4 8.3 8.1 8.0 7.9 7.7 7.6 7.1 7.0 6.7 6.4 6.6 6.0 6.0
7.5 7.8 8.1 7.8 8.1 8.6 8.7 8.8 9.0 8.9 9.0 9.2 9.2 8.8 9.1 9.4 9.5 9.4 9.5 9.5 9.4 9.3 9.3 9.1 8.9 8.8 8.5 8.4 8.4 8.4 8.2 8.1 8.1 8.2 7.9 7.7 7.6 7.0 6.8 6.4 6.2 6.4 6.2 6.1
7.1 7.9 7.9 7.8 7.9 7.2 8.7 8.7 9.0 9.1 8.9 9.2 9.2 9.1 9.1 9.3 9.3 9.3 9.3 9.3 9.3 9.1 8.9 8.7 8.8 8.6 8.4 8.3 8.3 8.2 8.1 7.9 7.8 8.0 8.1 7.5 7.3 7.4 6.9 6.6 6.4 6.4 6.1 5.9
6.9 7.4 7.2 7.3 8.1 7.9 8.1 8.5 8.8 8.0 8.4 9.3 9.1 9.1 9.2 9.2 9.2 9.4 9.4 8.9 8.8 8.6 8.6 8.3 8.3 8.3 8.1 8.1 8.1 8.1 8.0 7.9 7.8 8.1 8.0 7.3 7.2 6.9 6.5 6.6 6.6 6.4 6.0 5.6
6.6 6.8 7.6 7.2 7.1 7.1 7.2 7.7 8.0 7.9 8.3 9.1 9.1 8.8 8.9 9.0 9.1 9.1 9.0 9.1 8.6 8.2 8.1 8.1 8.1 8.0 8.0 7.9 7.7 7.6 7.8 7.3 7.4 8.0 7.6 7.5 7.0 6.8 6.7 6.7 6.7 6.3 6.4 5.6
7.4 6.8 6.9 6.5 5.5 6.0 6.9 7.3 7.1 6.9 7.8 8.6 8.6 8.6 8.1 8.1 8.0 8.2 8.6 8.3 8.3 8.0 7.9 7.8 7.9 8.0 8.0 8.0 7.7 8.1 7.7 8.0 7.8 7.3 7.3 7.3 6.8 6.6 6.3 6.3 6.3 6.2 6.0 6.0
7.5 7.3 7.0 7.3 5.5 5.5 5.8 6.0 6.3 6.7 7.3 7.7 7.7 7.6 7.8 7.7 7.5 7.5 7.6 7.7 7.9 8.0 8.0 8.1 8.1 8.2 8.0 7.8 7.8 7.8 7.9 7.7 7.3 7.2 7.0 6.9 6.7 7.0 6.2 6.0 5.8 5.6 5.8 6.1
7.5 7.5 7.1 6.8 6.8 6.3 6.0 5.9 6.0 6.3 6.9 6.8 6.8 7.0 7.2 7.1 7.0 7.3 7.5 7.6 7.5 7.4 7.8 8.1 8.1 7.9 8.3 8.0 7.6 7.6 7.9 7.6 7.1 7.1 6.7 6.6 6.7 6.7 6.5 6.0 6.1 6.1 6.3 6.3
7.2 7.2 7.0 7.3 7.2 7.3 6.8 6.4 6.8 7.1 6.9 6.8 7.1 6.9 6.9 6.9 7.0 7.4 7.9 7.9 8.1 8.2 8.2 7.8 7.3 7.3 7.4 7.5 7.6 7.9 7.4 7.2 7.0 6.8 6.6 6.5 6.5 6.5 6.3 6.3 6.1 6.1 6.1 6.1
Wind_Speed
5 4 7 11 10 7 8 7 12 3 1 2 6 4 15 16 14 14 15 15 15 15 16 15 14 13 12 9 9 10 8 7 6 2 3 2 3 2 3 6 8 7 6 6
4 9 10 8 7 8 9 8 11 1 4 2 1 4 9 15 19 17 16 14 16 16 8 10 12 11 13 14 13 11 12 8 8 4 3 3 3 3 2 3 6 9 9 9
6 5 10 8 5 7 7 17 7 18 7 3 5 4 7 10 11 10 13 15 13 14 11 11 12 13 13 12 12 13 13 12 10 9 4 2 2 1 1 2 2 4 9 9
6 5 13 9 10 9 7 8 14 10 12 8 7 5 7 14 16 15 18 16 16 14 11 11 14 14 14 14 13 13 12 12 10 11 8 6 4 4 3 3 2 3 7 8
7 6 8 6 10 9 8 8 10 12 10 6 2 2 7 13 13 21 21 21 19 19 17 16 17 18 18 15 13 12 11 11 10 11 11 8 4 3 2 2 5 3 3 7
10 3 9 11 5 13 10 8 7 5 4 2 9 10 6 7 21 25 17 22 21 20 18 18 17 15 14 12 12 12 12 12 11 12 11 11 9 6 4 3 4 3 2 2
2 7 3 5 6 2 6 7 1 3 1 5 6 5 13 10 14 23 22 22 21 20 19 17 16 16 15 16 16 13 14 15 12 13 12 11 10 8 9 7 5 5 3 2
8 6 10 4 7 8 7 9 6 7 6 5 3 9 14 21 16 13 12 14 15 17 19 19 19 19 18 18 16 15 14 15 13 12 11 9 8 5 4 6 3 4 4 4
7 6 4 6 5 10 5 4 7 7 2 3 5 8 7 7 9 9 16 10 17 19 20 22 20 20 19 18 19 19 17 15 12 13 11 9 8 9 8 7 5 4 4 4
8 2 6 4 5 3 8 8 4 2 5 4 4 4 6 5 11 11 8 16 19 18 18 18 19 20 19 20 19 17 17 17 13 13 11 11 11 10 8 7 8 6 5 4
7 4 4 5 8 12 3 3 5 5 4 7 4 6 9 11 12 12 15 17 17 18 19 20 18 19 21 18 16 17 16 16 14 14 12 11 10 10 9 9 8 7 6 6
9 8 9 11 4 6 11 10 9 6 5 3 4 7 5 11 8 6 12 13 9 12 15 17 17 18 17 18 17 18 17 16 16 14 13 12 11 11 10 10 8 7 7 5
6 4 8 6 6 1 5 5 6 5 4 8 6 7 3 6 7 9 10 9 9 10 9 11 12 15 16 17 17 17 16 18 14 14 13 13 12 7 7 5 5 6 5 5
9 6 11 17 13 6 5 7 7 8 5 6 7 8 6 9 10 8 9 9 11 12 11 9 10 15 15 15 16 15 15 15 13 14 14 14 12 8 9 5 6 5 2 5
10 11 8 18 10 8 9 9 10 8 7 8 8 11 13 13 13 13 15 6 7 10 10 13 16 13 10 9 10 12 13 13 13 14 13 10 12 12 12 6 6 5 8 9
3 6 10 20 14 13 11 10 10 8 5 5 2 8 9 5 5 4 12 12 13 12 16 14 10 9 10 12 11 10 11 11 9 10 11 14 15 13 16 16 16 14 14 11
2 5 4 17 7 7 6 18 12 6 5 7 8 16 7 7 9 11 10 13 17 17 15 12 13 11 9 11 9 10 11 9 11 11 13 16 17 17 18 16 17 15 13 13
5 2 4 5 5 5 11 2 13 14 4 5 5 6 9 8 12 5 3 10 12 10 10 8 6 5 6 6 9 8 9 11 12 13 16 17 18 19 17 15 14 15 11 9
4 3 3 8 5 4 2 4 4 5 4 3 5 8 3 1 4 6 4 4 6 4 4 5 6 5 6 8 7 7 9 11 13 14 16 17 19 17 14 10 9 8 6 5
7 2 4 1 7 8 4 4 3 2 1 4 1 9 3 4 4 3 2 6 9 8 6 7 6 4 5 5 6 7 8 11 12 13 15 15 14 16 13 8 7 3 3 2
6 4 1 2 3 3 5 7 1 5 4 4 4 4 1 5 3 1 7 12 8 9 8 6 6 5 2 4 7 7 7 7 7 11 11 12 11 12 9 9 5 6 7 7
4 4 1 2 1 3 10 3 5 4 5 9 13 6 10 6 6 3 9 11 11 10 9 7 7 5 3 3 7 8 8 7 8 9 10 10 9 7 7 9 8 9 10 8
4 4 4 3 2 4 5 3 1 3 2 7 12 6 11 10 8 7 9 9 9 9 7 6 6 7 4 2 4 6 5 10 12 10 10 10 10 8 9 10 9 6 6 5
3 5 5 3 5 5 6 6 5 2 7 10 11 10 12 8 8 8 7 6 7 5 5 5 8 8 5 4 5 5 7 9 10 11 10 8 8 6 3 3 3 4 4 3
1 1 6 5 5 4 5 3 4 6 11 13 12 13 12 9 7 5 4 6 6 4 2 2 5 4 8 7 7 5 6 8 8 8 6 5 5 6 5 4 2 1 3 0
4 1 3 5 4 7 3 6 8 13 12 9 13 14 13 11 8 4 6 4 5 5 4 6 4 5 5 5 6 6 5 6 7 6 4 5 5 5 5 5 3 10 7 0
Wind_Direction
193 128 175 188 191 173 151 158 187 124 28 10 202 189 181 188 192 194 197 202 204 208 213 206 199 197 186 181 183 187 185 192 164 157 164 179 210 192 211 221 220 216 212 186
93 202 206 174 159 162 167 154 202 137 148 158 284 278 198 198 205 203 200 205 205 212 192 190 192 186 186 186 189 185 197 184 190 179 167 165 173 197 177 190 212 212 213 196
156 226 146 146 173 144 178 187 171 210 146 143 136 300 193 219 216 219 226 224 216 209 194 189 181 189 187 189 188 191 196 194 195 184 133 128 113 101 152 203 207 200 191 182
210 208 164 153 179 155 161 198 193 149 154 205 161 253 226 202 212 218 222 219 218 214 202 196 193 190 189 199 195 196 195 197 198 179 180 176 180 172 209 191 197 170 159 151
235 172 161 168 184 163 211 163 159 172 172 121 210 84 266 176 218 227 223 218 213 211 204 196 197 197 198 192 192 196 195 200 193 189 194 187 174 175 164 167 162 157 139 158
219 201 168 187 176 180 147 94 58 50 104 187 209 183 248 193 214 228 220 219 212 207 204 203 199 193 198 194 194 196 194 205 193 191 191 187 182 177 168 175 178 178 157 180
245 242 231 149 134 59 87 85 40 60 81 211 210 191 233 219 228 221 214 212 209 202 201 199 186 191 193 190 199 196 196 207 199 194 189 190 186 180 187 179 184 165 160 183
172 223 174 201 163 164 181 157 154 186 181 206 121 208 240 232 235 240 238 218 205 200 200 197 191 194 195 196 200 201 201 207 194 190 193 182 170 178 191 179 168 184 189 187
161 249 282 174 155 144 184 157 187 108 42 99 199 280 305 238 254 224 230 184 201 202 198 196 193 196 195 195 201 200 200 205 193 195 185 180 176 166 187 182 182 188 185 188
205 223 227 200 129 202 163 168 96 354 151 221 264 270 231 241 239 241 231 212 208 199 195 199 197 196 199 201 201 198 201 202 195 191 186 183 179 184 171 170 189 186 188 190
141 128 281 129 203 198 119 162 60 121 134 174 198 254 214 210 211 222 238 224 204 195 195 196 196 199 201 202 200 200 197 195 193 184 180 177 181 177 172 180 189 177 174 187
208 191 219 212 236 195 182 183 169 191 227 223 171 252 222 221 241 224 228 217 190 196 198 196 193 195 196 201 199 201 199 197 198 188 183 182 177 175 181 181 183 170 179 173
180 215 224 305 305 254 196 170 132 117 93 190 192 254 251 263 253 240 237 199 191 192 192 187 187 195 196 199 202 203 201 204 191 183 181 180 179 182 181 204 181 162 172 173
187 186 194 226 228 173 187 176 176 153 154 173 211 230 263 242 230 229 230 213 190 194 193 177 183 198 197 198 202 202 205 201 184 182 184 180 167 102 78 10 31 345 215 202
155 195 196 225 195 178 199 178 169 178 185 177 229 196 233 224 215 215 213 207 176 196 180 193 198 198 188 188 191 201 202 191 182 186 183 144 131 131 130 107 330 280 234 221
323 236 186 234 205 200 217 223 180 196 168 240 261 247 237 253 131 172 194 184 202 203 207 204 198 188 185 191 192 190 191 187 166 170 160 145 150 156 153 174 211 214 242 220
252 174 141 228 179 167 243 224 219 182 181 173 191 232 169 223 203 219 199 190 206 210 200 190 194 193 178 187 167 181 180 154 159 159 152 158 165 172 174 192 206 216 215 221
274 163 134 247 90 173 239 195 207 209 179 209 276 239 205 209 214 245 142 190 208 184 171 178 176 164 167 164 191 186 145 157 160 161 163 170 175 185 195 202 206 219 214 219
233 130 224 195 175 222 138 12 112 150 170 57 287 280 225 215 82 49 338 116 130 140 139 171 169 177 162 192 191 148 143 157 163 169 174 179 182 186 195 223 215 213 200 204
305 296 138 176 154 189 187 304 27 338 213 358 224 273 199 138 145 229 311 107 89 90 88 118 119 98 151 200 168 145 148 158 175 173 179 178 180 185 199 189 195 163 123 117
315 318 110 260 126 283 15 313 209 132 210 307 26 314 242 101 211 227 120 76 78 78 71 70 81 103 150 156 135 126 138 169 172 162 170 171 178 187 188 158 156 139 139 153
200 303 97 252 131 142 2 343 153 165 292 81 70 38 68 54 68 46 82 84 87 81 66 56 71 49 33 129 132 136 131 136 135 156 152 152 157 158 172 169 169 171 179 186
148 182 174 147 185 268 315 20 10 222 179 97 90 67 86 66 47 46 50 55 68 87 88 83 90 80 27 82 96 92 118 146 133 146 150 150 158 160 171 174 181 189 193 190
126 158 153 119 3 357 1 21 19 323 83 68 78 69 63 56 22 32 55 68 67 38 75 123 125 114 79 83 86 154 163 125 137 145 149 157 158 146 127 72 98 146 162 138
285 321 119 24 124 110 348 342 316 54 70 70 66 66 64 66 32 22 38 34 55 50 19 14 124 128 134 131 142 154 131 133 147 143 139 134 135 132 113 77 38 30 51 326
333 326 186 186 183 137 125 5 271 94 76 73 73 57 48 39 25 16 45 41 60 52 344 65 352 103 100 112 135 132 138 147 141 125 134 147 145 140 134 138 115 50 39 330